Дата Пункты Температура Давл., мм. Влажн., % Ветер Погодные явления
Воздуха Воды Направл. Скорость
31.03.15 02:00 Одесса 7.0 6.0 750 98 Пд 4 03 часа
30.03.15 08:00 Одесса 8.0 6.0 751 92 Пд 4 21 час
30.03.15 05:00 Одесса 7.0 6.0 750 98 Пд 4 18 часов
30.03.15 02:00 Одесса 9.0 6.0 750 93 Пд 4 15 часов
30.03.15 11:00 Одесса 8.0 6.0 751 97 Пд-З 2 12 часов
30.03.15 08:00 Одесса 6.0 6.0 752 99 Пд 3 09 часов
30.03.15 05:00 Одесса 6.0 6.0 752 100 Пд 2 06 часов
30.03.15 02:00 Одесса 6.0 6.0 753 99 Пд 1 03 часа
29.03.15 08:00 Одесса 4.0 6.0 753 96 З 1 21 час
29.03.15 05:00 Одесса 5.0 6.0 752 94 З 2 18 часов
29.03.15 02:00 Одесса 5.0 6.0 751 94 З 2 15 часов
29.03.15 11:00 Одесса 6.0 6.0 749 91 З 3 12 часов
29.03.15 08:00 Одесса 6.0 6.0 747 99 З 2 09 часов
29.03.15 05:00 Одесса 7.0 6.0 746 99 З 1 06 часов
28.03.15 10:00 Одесса 6.0 6.0 747 99 Пн 6 23 часа
28.03.15 07:00 Одесса 6.0 6.0 749 99 Пн-С 6 20 часов
28.03.15 04:00 Одесса 6.0 6.0 750 97 Пн-С 11 17 часов
28.03.15 01:00 Одесса 8.0 6.0 751 92 Пн-С 8 14 часов
28.03.15 10:00 Одесса 7.0 6.0 752 94 Пн-С 5 11 часов
28.03.15 07:00 Одесса 7.0 6.0 752 93 Пн 2 08 часов
Количество строк
441 442 443 444 445 446 447 448 449 450
Page 448 of 523